Location: Caltech
(34.1382°N, 118.1253°W)
Time: 10:40:42
(UTC-07:00)

PCSat - Visible Passes

Search period start: 24 May 2016 00:00
Search period end: 03 June 2016 00:00
Orbit: 785 x 795 km, 67.1° (Epoch: 23 May)

Date Brightness Start Highest point End Pass type
(mag) Time Alt. Az. Time Alt. Az. Time Alt. Az.
24 May 10.0 20:33:26 10° NNW 20:38:48 65° WSW 20:44:08 10° SSE visible
26 May 12.1 21:17:18 10° WNW 21:19:58 14° WSW 21:22:36 10° SW visible
27 May 11.9 20:45:26 10° WNW 20:49:20 20° WSW 20:53:12 10° SSW visible
